GM0VGI-13 Weather Reports


time (UTC)temp
F
wind
direction
speed
knots
gust
knots
rain 1hr
in
rain 24hr
in
rain mn
in
humidity
%
barometer
mb
20260506163603 51 165 6.1 13.9 0.00 0.00 0.00 61 1013.4
20260506163404 51 166 6.1 13.9 0.00 0.00 0.00 61 1013.4
20260506163204 51 165 5.2 12.2 0.00 0.00 0.00 63 1013.4
20260506163003 50 168 5.2 12.2 0.00 0.00 0.00 63 1013.4
20260506162803 50 164 5.2 12.2 0.00 0.00 0.00 64 1013.4
20260506162603 50 161 5.2 12.2 0.00 0.00 0.00 65 1013.5
20260506162403 50 161 5.2 13.9 0.00 0.00 0.00 66 1013.5
20260506162204 49 164 6.1 13.9 0.00 0.00 0.00 64 1013.5
20260506162004 49 161 6.1 13.9 0.00 0.00 0.00 63 1013.5
20260506161803 50 162 6.1 13.9 0.00 0.00 0.00 63 1013.6
20260506161603 50 160 6.1 13.9 0.00 0.00 0.00 62 1013.6
20260506161403 50 158 6.1 12.2 0.00 0.00 0.00 62 1013.6
20260506161203 50 158 5.2 12.2 0.00 0.00 0.00 62 1013.6
20260506161004 50 163 5.2 12.2 0.00 0.00 0.00 62 1013.7
20260506160804 50 165 5.2 12.2 0.00 0.00 0.00 62 1013.7
20260506160604 50 169 5.2 12.2 0.00 0.00 0.00 62 1013.7
20260506160403 50 168 5.2 11.3 0.00 0.00 0.00 62 1013.7
20260506160203 50 164 5.2 11.3 0.00 0.00 0.00 61 1013.6
20260506160003 50 162 5.2 11.3 0.00 0.00 0.00 62 1013.7
20260506155804 50 159 6.1 13.9 0.00 0.00 0.00 61 1013.6
20260506155603 51 154 6.1 13.9 0.00 0.00 0.00 61 1013.5
20260506155404 51 154 6.1 13.9 0.00 0.00 0.00 61 1013.5
20260506155204 51 153 7.0 15.6 0.00 0.00 0.00 61 1013.6
20260506155003 51 151 7.8 15.6 0.00 0.00 0.00 61 1013.5
20260506154803 51 149 7.8 15.6 0.00 0.00 0.00 62 1013.5
20260506154603 51 148 7.8 15.6 0.00 0.00 0.00 63 1013.5
20260506154404 51 148 7.8 14.8 0.00 0.00 0.00 62 1013.5
20260506154203 51 147 7.8 14.8 0.00 0.00 0.00 62 1013.5
20260506154003 51 147 7.0 14.8 0.00 0.00 0.00 62 1013.5
20260506153803 51 148 7.0 14.8 0.00 0.00 0.00 63 1013.5
20260506153604 51 147 7.8 15.6 0.00 0.00 0.00 63 1013.5
20260506153404 50 147 8.7 15.6 0.00 0.00 0.00 64 1013.5
20260506153204 50 147 8.7 15.6 0.00 0.00 0.00 64 1013.5
20260506153003 50 147 8.7 15.6 0.00 0.00 0.00 64 1013.5
20260506152803 50 147 8.7 15.6 0.00 0.00 0.00 64 1013.5
20260506152603 50 148 7.8 14.8 0.00 0.00 0.00 65 1013.4
20260506152405 50 148 7.8 12.2 0.00 0.00 0.00 66 1013.5
20260506152203 49 148 7.8 14.8 0.00 0.00 0.00 66 1013.5
20260506152003 49 148 8.7 16.5 0.00 0.00 0.00 65 1013.5
20260506151804 49 148 8.7 16.5 0.00 0.00 0.00 66 1013.6
20260506151603 49 147 8.7 16.5 0.00 0.00 0.00 66 1013.6
20260506151403 49 147 9.6 16.5 0.00 0.00 0.00 66 1013.6
20260506151203 49 147 8.7 16.5 0.00 0.00 0.00 65 1013.6
20260506151004 49 146 7.8 15.6 0.00 0.00 0.00 66 1013.6
20260506150803 49 146 7.8 15.6 0.00 0.00 0.00 67 1013.6
20260506150604 48 147 7.8 14.8 0.00 0.00 0.00 67 1013.6
20260506150403 48 147 7.8 14.8 0.00 0.00 0.00 67 1013.7
20260506150203 48 147 8.7 14.8 0.00 0.00 0.00 67 1013.7
20260506150003 48 146 7.8 14.8 0.00 0.00 0.00 67 1013.7
20260506145803 48 146 7.8 14.8 0.00 0.00 0.00 66 1013.7
20260506145603 48 145 7.8 15.6 0.00 0.00 0.00 66 1013.7
20260506145403 48 145 7.8 15.6 0.00 0.00 0.00 67 1013.7
20260506145204 48 146 8.7 15.6 0.00 0.00 0.00 66 1013.8
20260506145004 48 147 9.6 15.6 0.00 0.00 0.00 67 1013.7
20260506144803 48 147 9.6 15.6 0.00 0.00 0.00 66 1013.7
20260506144604 48 148 9.6 14.8 0.00 0.00 0.00 66 1013.8
20260506144403 48 147 8.7 14.8 0.00 0.00 0.00 66 1013.8
20260506144203 48 148 8.7 14.8 0.00 0.00 0.00 66 1013.7
20260506144003 49 148 7.8 14.8 0.00 0.00 0.00 66 1013.8
20260506143803 49 147 7.8 14.8 0.00 0.00 0.00 66 1013.8
20260506143603 49 147 7.8 14.8 0.00 0.00 0.00 65 1013.8
20260506143403 49 148 8.7 13.9 0.00 0.00 0.00 66 1013.9
20260506143203 49 148 7.8 13.9 0.00 0.00 0.00 65 1013.9
20260506143004 49 148 7.8 13.9 0.00 0.00 0.00 65 1013.9
20260506142804 49 148 7.0 13.9 0.00 0.00 0.00 65 1013.9
20260506142603 49 149 6.1 13.9 0.00 0.00 0.00 65 1013.9
20260506142403 49 150 6.1 12.2 0.00 0.00 0.00 65 1014.0
20260506142204 49 148 6.1 12.2 0.00 0.00 0.00 65 1014.0
20260506142004 49 147 6.1 12.2 0.00 0.00 0.00 65 1014.0
20260506141803 49 148 7.0 12.2 0.00 0.00 0.00 64 1014.1
20260506141604 49 149 7.8 15.6 0.00 0.00 0.00 64 1014.0
20260506141403 49 148 7.8 19.1 0.00 0.00 0.00 65 1014.0
20260506141203 49 149 7.8 19.1 0.00 0.00 0.00 64 1014.1
20260506141003 50 150 7.8 19.1 0.00 0.00 0.00 64 1014.0
20260506140803 50 149 8.7 19.1 0.00 0.00 0.00 63 1014.0
20260506140603 50 148 7.8 19.1 0.00 0.00 0.00 65 1014.1
20260506140404 50 147 7.8 14.8 0.00 0.00 0.00 64 1014.0
20260506140203 50 146 7.8 14.8 0.00 0.00 0.00 64 1014.0
20260506140003 50 145 7.8 14.8 0.00 0.00 0.00 64 1014.0
20260506135803 50 144 8.7 14.8 0.00 0.00 0.00 63 1014.1
20260506135604 51 143 7.8 14.8 0.00 0.00 0.00 64 1014.1
20260506135404 51 144 7.8 14.8 0.00 0.00 0.00 62 1014.1
20260506135204 51 144 7.0 13.9 0.00 0.00 0.00 62 1014.1
20260506135004 52 144 7.0 13.9 0.00 0.00 0.00 62 1014.1
20260506134803 52 144 7.0 14.8 0.00 0.00 0.00 63 1014.1
20260506134604 52 145 7.0 14.8 0.00 0.00 0.00 63 1014.2
20260506134403 52 144 7.0 14.8 0.00 0.00 0.00 63 1014.2
20260506134203 52 144 7.0 14.8 0.00 0.00 0.00 64 1014.2
20260506134003 52 145 7.0 14.8 0.00 0.00 0.00 63 1014.2
20260506133803 51 145 7.0 17.4 0.00 0.00 0.00 65 1014.2
20260506133604 51 145 7.8 17.4 0.00 0.00 0.00 66 1014.2
20260506133404 50 147 8.7 17.4 0.00 0.00 0.00 65 1014.2
20260506133204 50 146 8.7 17.4 0.00 0.00 0.00 64 1014.2
20260506133004 50 145 8.7 17.4 0.00 0.00 0.00 64 1014.2
20260506132803 50 144 8.7 16.5 0.00 0.00 0.00 63 1014.2
20260506132604 50 144 7.8 14.8 0.00 0.00 0.00 63 1014.3
20260506132405 51 144 7.0 12.2 0.00 0.00 0.00 64 1014.2
20260506132204 51 144 7.0 12.2 0.00 0.00 0.00 64 1014.3
20260506132005 51 145 7.0 12.2 0.00 0.00 0.00 63 1014.3
20260506131804 51 146 7.0 16.5 0.00 0.00 0.00 63 1014.3
20260506131604 51 146 7.0 16.5 0.00 0.00 0.00 64 1014.3
20260506131403 51 146 7.0 16.5 0.00 0.00 0.00 63 1014.3
20260506131203 51 146 7.0 16.5 0.00 0.00 0.00 63 1014.4
20260506131004 51 147 7.0 16.5 0.00 0.00 0.00 62 1014.4
20260506130803 51 147 7.0 15.6 0.00 0.00 0.00 63 1014.3
20260506130603 51 148 7.0 15.6 0.00 0.00 0.00 64 1014.4
20260506130404 51 148 7.8 15.6 0.00 0.00 0.00 64 1014.4
20260506130204 50 149 7.8 15.6 0.00 0.00 0.00 65 1014.3
20260506130003 50 148 7.8 15.6 0.00 0.00 0.00 65 1014.4
20260506125804 50 147 7.0 12.2 0.00 0.00 0.00 64 1014.4
20260506125603 50 146 6.1 12.2 0.00 0.00 0.00 65 1014.3
20260506125404 50 145 6.1 11.3 0.00 0.00 0.00 65 1014.3
20260506125204 50 145 5.2 11.3 0.00 0.00 0.00 66 1014.4
20260506125003 49 148 5.2 11.3 0.00 0.00 0.00 65 1014.4
20260506124804 49 154 4.3 11.3 0.00 0.00 0.00 65 1014.4
20260506124604 49 157 4.3 10.4 0.00 0.00 0.00 65 1014.5
20260506124404 49 156 5.2 10.4 0.00 0.00 0.00 64 1014.4
20260506124204 49 153 5.2 10.4 0.00 0.00 0.00 64 1014.5
20260506124004 49 152 5.2 10.4 0.00 0.00 0.00 64 1014.5
20260506123803 49 151 5.2 10.4 0.00 0.00 0.00 65 1014.4
20260506123604 49 149 5.2 10.4 0.00 0.00 0.00 65 1014.3
20260506123404 49 151 4.3 10.4 0.00 0.00 0.00 64 1014.5
20260506123204 49 152 5.2 10.4 0.00 0.00 0.00 63 1014.5
20260506123003 49 150 5.2 10.4 0.00 0.00 0.00 64 1014.4
20260506122804 49 147 5.2 10.4 0.00 0.00 0.00 64 1014.5
20260506122603 49 144 5.2 9.6 0.00 0.00 0.00 63 1014.4
20260506122403 49 141 5.2 9.6 0.00 0.00 0.00 63 1014.5
20260506122204 49 136 5.2 9.6 0.00 0.00 0.00 64 1014.5
20260506122003 50 133 5.2 9.6 0.00 0.00 0.00 63 1014.5
20260506121803 50 124 4.3 9.6 0.00 0.00 0.00 63 1014.5
20260506121604 50 122 4.3 8.7 0.00 0.00 0.00 64 1014.5
20260506121404 50 119 4.3 8.7 0.00 0.00 0.00 64 1014.5
20260506121203 50 117 5.2 10.4 0.00 0.00 0.00 63 1014.4
20260506121004 50 118 5.2 10.4 0.00 0.00 0.00 61 1014.5
20260506120803 51 117 5.2 10.4 0.00 0.00 0.00 62 1014.5
20260506120603 51 119 5.2 10.4 0.00 0.00 0.00 61 1014.5
20260506120404 51 119 5.2 11.3 0.00 0.00 0.00 61 1014.5
20260506120203 52 125 5.2 11.3 0.00 0.00 0.00 62 1014.6
20260506120004 52 124 5.2 11.3 0.00 0.00 0.00 60 1014.5
20260506115803 52 127 5.2 11.3 0.00 0.00 0.00 61 1014.6
20260506115603 52 127 6.1 11.3 0.00 0.00 0.00 59 1014.5
20260506115403 52 130 5.2 11.3 0.00 0.00 0.00 60 1014.5
20260506115203 53 123 5.2 9.6 0.00 0.00 0.00 58 1014.5
20260506115004 53 123 5.2 8.7 0.00 0.00 0.00 59 1014.5
20260506114803 53 118 5.2 10.4 0.00 0.00 0.00 59 1014.5
20260506114603 53 116 4.3 10.4 0.00 0.00 0.00 56 1014.5
20260506114404 53 117 5.2 10.4 0.00 0.00 0.00 56 1014.5
20260506114203 53 117 5.2 10.4 0.00 0.00 0.00 60 1014.5
20260506114005 52 119 4.3 10.4 0.00 0.00 0.00 58 1014.5
20260506113803 52 123 3.5 9.6 0.00 0.00 0.00 59 1014.5
20260506113604 52 121 3.5 9.6 0.00 0.00 0.00 60 1014.5
20260506113403 51 111 2.6 9.6 0.00 0.00 0.00 55 1014.5
20260506113204 51 107 2.6 7.0 0.00 0.00 0.00 55 1014.5
20260506113005 51 105 2.6 7.0 0.00 0.00 0.00 53 1014.5
20260506112803 51 115 2.6 7.0 0.00 0.00 0.00 53 1014.5
20260506112603 51 135 2.6 7.0 0.00 0.00 0.00 52 1014.5
20260506112404 51 167 2.6 8.7 0.00 0.00 0.00 52 1014.5
20260506112203 51 205 2.6 8.7 0.00 0.00 0.00 53 1014.6
20260506112003 51 203 2.6 8.7 0.00 0.00 0.00 52 1014.5
20260506111803 51 182 2.6 8.7 0.00 0.00 0.00 55 1014.6
20260506111604 51 158 2.6 8.7 0.00 0.00 0.00 52 1014.6
20260506111404 52 140 3.5 7.0 0.00 0.00 0.00 51 1014.6
20260506111204 52 123 3.5 8.7 0.00 0.00 0.00 53 1014.6
20260506111003 52 115 4.3 10.4 0.00 0.00 0.00 52 1014.6
20260506110803 52 110 4.3 10.4 0.00 0.00 0.00 51 1014.6
20260506110603 52 107 4.3 10.4 0.00 0.00 0.00 51 1014.6
20260506110404 53 109 4.3 10.4 0.00 0.00 0.00 51 1014.6
20260506110203 53 116 4.3 10.4 0.00 0.00 0.00 51 1014.5
20260506110003 53 120 4.3 9.6 0.00 0.00 0.00 51 1014.6
20260506105804 54 124 3.5 9.6 0.00 0.00 0.00 50 1014.6
20260506105604 54 131 3.5 9.6 0.00 0.00 0.00 54 1014.6
20260506105403 53 131 3.5 9.6 0.00 0.00 0.00 56 1014.7
20260506105203 53 128 3.5 9.6 0.00 0.00 0.00 54 1014.6
20260506105003 53 124 2.6 7.0 0.00 0.00 0.00 54 1014.7
20260506104803 53 122 2.6 7.0 0.00 0.00 0.00 55 1014.7
20260506104604 52 120 2.6 7.0 0.00 0.00 0.00 57 1014.7
20260506104405 52 119 2.6 7.0 0.00 0.00 0.00 57 1014.8
20260506104203 52 117 2.6 7.0 0.00 0.00 0.00 58 1014.8
20260506104003 52 114 2.6 7.0 0.00 0.00 0.00 56 1014.8
20260506103803 52 116 3.5 7.0 0.00 0.00 0.00 57 1014.7
20260506103604 51 121 3.5 7.0 0.00 0.00 0.00 58 1014.8
20260506103404 51 126 3.5 7.0 0.00 0.00 0.00 57 1014.8
20260506103205 51 137 3.5 6.1 0.00 0.00 0.00 56 1014.8
20260506103003 50 157 2.6 6.1 0.00 0.00 0.00 58 1014.8
20260506102803 50 181 2.6 6.1 0.00 0.00 0.00 57 1014.8
20260506102604 51 178 2.6 6.1 0.00 0.00 0.00 57 1014.8
20260506102404 51 176 2.6 6.1 0.00 0.00 0.00 57 1014.8
20260506102204 51 159 2.6 6.1 0.00 0.00 0.00 57 1014.8
20260506102005 51 144 2.6 6.1 0.00 0.00 0.00 57 1014.8
20260506101804 52 114 2.6 8.7 0.00 0.00 0.00 56 1014.8
20260506101603 52 98 2.6 8.7 0.00 0.00 0.00 54 1014.8
20260506101403 52 96 2.6 8.7 0.00 0.00 0.00 55 1014.8
20260506101203 52 104 2.6 8.7 0.00 0.00 0.00 50 1014.9
20260506101003 53 111 3.5 8.7 0.00 0.00 0.00 50 1014.8
20260506100804 53 125 2.6 8.7 0.00 0.00 0.00 53 1014.9
20260506100604 53 156 2.6 7.0 0.00 0.00 0.00 52 1014.9
20260506100403 53 162 2.6 7.0 0.00 0.00 0.00 57 1015.0
20260506100203 53 166 2.6 7.0 0.00 0.00 0.00 58 1015.0
20260506100004 53 170 3.5 7.0 0.00 0.00 0.00 52 1015.0
20260506095803 53 167 3.5 7.0 0.00 0.00 0.00 50 1015.0
20260506095603 54 157 3.5 7.0 0.00 0.00 0.00 52 1015.1
20260506095404 54 155 3.5 7.0 0.00 0.00 0.00 53 1015.0
20260506095204 54 157 3.5 7.0 0.00 0.00 0.00 55 1015.1
20260506095003 53 163 3.5 7.0 0.00 0.00 0.00 55 1015.1
20260506094803 53 173 3.5 7.0 0.00 0.00 0.00 54 1015.0
20260506094603 52 179 2.6 6.1 0.00 0.00 0.00 56 1015.0
20260506094403 52 177 3.5 7.0 0.00 0.00 0.00 57 1015.1
20260506094203 52 169 3.5 7.0 0.00 0.00 0.00 53 1015.0
20260506094003 53 161 3.5 7.0 0.00 0.00 0.00 54 1015.0
20260506093803 53 153 3.5 7.0 0.00 0.00 0.00 55 1015.0
20260506093603 53 151 3.5 6.1 0.00 0.00 0.00 58 1015.0
20260506093403 53 148 3.5 6.1 0.00 0.00 0.00 55 1015.1
20260506093204 52 160 3.5 9.6 0.00 0.00 0.00 56 1015.0
20260506093003 52 155 3.5 9.6 0.00 0.00 0.00 55 1015.0
20260506092803 52 154 3.5 9.6 0.00 0.00 0.00 57 1015.1
20260506092605 52 150 3.5 9.6 0.00 0.00 0.00 57 1015.0
20260506092403 51 148 3.5 9.6 0.00 0.00 0.00 58 1015.1
20260506092203 51 151 3.5 7.0 0.00 0.00 0.00 58 1015.0
20260506092003 51 171 3.5 7.0 0.00 0.00 0.00 58 1015.1
20260506091803 50 186 2.6 7.0 0.00 0.00 0.00 58 1015.2
20260506091603 50 203 2.6 7.0 0.00 0.00 0.00 58 1015.2
20260506091403 50 207 2.6 5.2 0.00 0.00 0.00 55 1015.3
20260506091203 50 195 2.6 6.1 0.00 0.00 0.00 55 1015.4
20260506091004 50 179 2.6 8.7 0.00 0.00 0.00 56 1015.4
20260506090803 51 182 2.6 8.7 0.00 0.00 0.00 57 1015.5
20260506090603 51 186 2.6 8.7 0.00 0.00 0.00 57 1015.5
20260506090403 50 199 2.6 8.7 0.00 0.00 0.00 57 1015.4
20260506090203 50 206 2.6 8.7 0.00 0.00 0.00 60 1015.5
20260506090003 50 219 1.7 5.2 0.00 0.00 0.00 58 1015.4
20260506085804 50 206 1.7 5.2 0.00 0.00 0.00 56 1015.5
20260506085603 51 188 1.7 5.2 0.00 0.00 0.00 58 1015.5
20260506085405 51 168 1.7 5.2 0.00 0.00 0.00 58 1015.5
20260506085204 51 153 1.7 5.2 0.00 0.00 0.00 59 1015.5
20260506085005 51 150 1.7 5.2 0.00 0.00 0.00 60 1015.6
20260506084804 51 146 2.6 6.1 0.00 0.00 0.00 61 1015.6
20260506084604 51 147 2.6 7.0 0.00 0.00 0.00 61 1015.6
20260506084404 51 152 3.5 7.0 0.00 0.00 0.00 60 1015.6
20260506084205 51 152 3.5 7.0 0.00 0.00 0.00 62 1015.6
20260506084004 51 152 3.5 7.0 0.00 0.00 0.00 62 1015.6
20260506083803 51 152 3.5 7.0 0.00 0.00 0.00 63 1015.7
20260506083603 51 148 2.6 7.0 0.00 0.00 0.00 64 1015.7
20260506083403 51 143 2.6 7.0 0.00 0.00 0.00 63 1015.6
20260506083203 50 146 2.6 7.0 0.00 0.00 0.00 62 1015.6
20260506083003 50 151 2.6 7.0 0.00 0.00 0.00 63 1015.6
20260506082804 50 157 2.6 7.0 0.00 0.00 0.00 62 1015.6
20260506082604 50 165 2.6 7.0 0.00 0.00 0.00 64 1015.6
20260506082403 50 175 1.7 5.2 0.00 0.00 0.00 64 1015.6
20260506082205 50 177 2.6 6.1 0.00 0.00 0.00 65 1015.6
20260506082004 49 176 1.7 6.1 0.00 0.00 0.00 65 1015.6
20260506081803 49 173 1.7 6.1 0.00 0.00 0.00 65 1015.6
20260506081603 49 169 2.6 6.1 0.00 0.00 0.00 64 1015.6
20260506081404 49 161 1.7 6.1 0.00 0.00 0.00 64 1015.6
20260506081203 49 157 1.7 5.2 0.00 0.00 0.00 65 1015.6
20260506081003 49 159 1.7 5.2 0.00 0.00 0.00 67 1015.6
20260506080804 49 162 1.7 5.2 0.00 0.00 0.00 68 1015.6
20260506080603 49 175 1.7 5.2 0.00 0.00 0.00 68 1015.6
20260506080404 48 190 1.7 5.2 0.00 0.00 0.00 69 1015.6
20260506080204 48 202 0.9 3.5 0.00 0.00 0.00 68 1015.7
20260506073403 45 352 0.9 3.5 0.00 0.00 0.00 72 1015.8
20260506073203 45 351 0.9 3.5 0.00 0.00 0.00 73 1015.9
20260506073003 44 350 0.9 3.5 0.00 0.00 0.00 73 1015.8
20260506072804 44 350 0.9 3.5 0.00 0.00 0.00 74 1015.9
20260506072603 43 349 0.9 1.7 0.00 0.00 0.00 72 1015.9
20260506072404 43 349 0.9 1.7 0.00 0.00 0.00 71 1015.9
20260506072203 44 349 0.9 1.7 0.00 0.00 0.00 71 1016.0
20260506072003 44 349 0.9 1.7 0.00 0.00 0.00 71 1015.9
20260506071803 44 349 0.9 1.7 0.00 0.00 0.00 72 1015.9
20260506071603 44 349 0.9 3.5 0.00 0.00 0.00 72 1015.9
20260506071403 44 349 0.9 3.5 0.00 0.00 0.00 72 1016.0
20260506071203 43 349 0.9 3.5 0.00 0.00 0.00 73 1015.9
20260506071004 43 349 0.9 3.5 0.00 0.00 0.00 73 1015.9
20260506070803 43 349 0.9 3.5 0.00 0.00 0.00 74 1016.0
20260506070604 42 349 1.7 3.5 0.00 0.00 0.00 74 1016.0
20260506070404 42 349 1.7 3.5 0.00 0.00 0.00 74 1016.0
20260506070204 42 349 1.7 3.5 0.00 0.00 0.00 74 1016.0
20260506062404 38 327 0.9 3.5 0.00 0.01 0.00 81 1015.9
20260506062204 38 326 0.9 3.5 0.00 0.01 0.00 81 1016.0
20260506062004 38 326 0.9 1.7 0.00 0.01 0.00 82 1015.9
20260506061803 38 326 0.9 1.7 0.00 0.01 0.00 83 1015.9
20260506061603 37 326 0.9 1.7 0.00 0.01 0.00 83 1015.9
20260506061404 37 326 0.9 1.7 0.00 0.01 0.00 83 1015.9
20260506061204 37 326 0.9 1.7 0.00 0.01 0.00 83 1015.9
20260506061003 37 326 0.9 1.7 0.00 0.01 0.00 83 1015.8
20260506060803 37 326 0.9 1.7 0.00 0.01 0.00 83 1015.9
20260506060604 36 326 0.9 1.7 0.00 0.01 0.00 83 1015.9
20260506060404 37 326 0.9 1.7 0.00 0.01 0.00 84 1016.0
20260506060203 37 326 0.9 1.7 0.00 0.01 0.00 84 1016.0
20260506051404 31 0 0.0 0.0 0.00 0.01 0.00 88 1016.2
20260506051203 31 0 0.0 0.0 0.00 0.01 0.00 88 1016.2
20260506051004 31 325 0.0 0.9 0.00 0.01 0.00 88 1016.2
20260506050803 31 325 0.0 0.9 0.00 0.01 0.00 89 1016.2
20260506050605 31 325 0.0 0.9 0.00 0.01 0.00 89 1016.1
20260506050403 31 325 0.0 0.9 0.00 0.01 0.00 89 1016.2
20260506050203 31 325 0.0 0.9 0.00 0.01 0.00 89 1016.2
20260506045003 30 0 0.0 0.0 0.00 0.01 0.00 88 1016.2
20260506044803 30 325 0.0 0.9 0.00 0.01 0.00 88 1016.2
20260506044604 30 325 0.0 0.9 0.00 0.01 0.00 88 1016.2
20260506044404 30 325 0.0 0.9 0.00 0.01 0.00 88 1016.3
20260506044204 30 325 0.0 0.9 0.00 0.01 0.00 88 1016.3
20260506044003 30 325 0.0 0.9 0.00 0.01 0.00 88 1016.2
20260506043803 30 0 0.0 0.0 0.00 0.01 0.00 88 1016.2
20260506043604 30 0 0.0 0.0 0.00 0.01 0.00 88 1016.2
20260506043403 30 0 0.0 0.0 0.00 0.01 0.00 88 1016.3
20260506043204 30 0 0.0 0.0 0.00 0.01 0.00 88 1016.4
20260506043003 30 0 0.0 0.0 0.00 0.01 0.00 88 1016.2
20260506042803 30 0 0.0 0.0 0.00 0.01 0.00 88 1016.2
20260506042604 30 0 0.0 0.0 0.00 0.01 0.00 87 1016.2
20260506042403 30 0 0.0 0.0 0.00 0.01 0.00 87 1016.2
20260506042203 30 0 0.0 0.0 0.00 0.01 0.00 87 1016.3
20260506042004 30 0 0.0 0.0 0.00 0.01 0.00 87 1016.3
20260506041803 30 0 0.0 0.0 0.00 0.01 0.00 87 1016.3
20260506041603 30 0 0.0 0.0 0.00 0.01 0.00 88 1016.3
20260506041404 30 0 0.0 0.0 0.00 0.01 0.00 88 1016.3
20260506041203 30 0 0.0 0.0 0.00 0.01 0.00 88 1016.3
20260506041004 30 0 0.0 0.0 0.00 0.01 0.00 87 1016.3
20260506040803 30 0 0.0 0.0 0.00 0.01 0.00 87 1016.2
20260506040603 30 0 0.0 0.0 0.00 0.01 0.00 87 1016.2
20260506040404 30 0 0.0 0.0 0.00 0.01 0.00 88 1016.2
20260506040203 30 0 0.0 0.0 0.00 0.01 0.00 88 1016.3
20260506040003 30 0 0.0 0.0 0.00 0.01 0.00 87 1016.3
20260506035804 30 0 0.0 0.0 0.00 0.01 0.00 87 1016.2
20260506035603 30 0 0.0 0.0 0.00 0.01 0.00 87 1016.2
20260506035404 30 0 0.0 0.0 0.00 0.01 0.00 87 1016.3
20260506035203 30 0 0.0 0.0 0.00 0.01 0.00 87 1016.3
20260506035003 30 0 0.0 0.0 0.00 0.01 0.00 87 1016.2
20260506034803 30 0 0.0 0.0 0.00 0.01 0.00 87 1016.3
20260506034604 30 0 0.0 0.0 0.00 0.01 0.00 87 1016.2
20260506034403 30 0 0.0 0.0 0.00 0.01 0.00 87 1016.3
20260506034204 30 0 0.0 0.0 0.00 0.01 0.00 87 1016.3
20260506034004 30 0 0.0 0.0 0.00 0.01 0.00 87 1016.2
20260506033803 30 0 0.0 0.0 0.00 0.01 0.00 87 1016.3
20260506033604 31 0 0.0 0.0 0.00 0.01 0.00 87 1016.4
20260506033403 31 0 0.0 0.0 0.00 0.01 0.00 87 1016.3
20260506033204 31 0 0.0 0.0 0.00 0.01 0.00 87 1016.3
20260506033005 31 0 0.0 0.0 0.00 0.01 0.00 87 1016.2
20260506032803 31 0 0.0 0.0 0.00 0.01 0.00 87 1016.4
20260506032603 31 0 0.0 0.0 0.00 0.01 0.00 87 1016.4
20260506032403 31 0 0.0 0.0 0.00 0.01 0.00 87 1016.3
20260506032203 31 0 0.0 0.0 0.00 0.01 0.00 87 1016.4
20260506032004 31 0 0.0 0.0 0.00 0.01 0.00 87 1016.4
20260506031804 31 0 0.0 0.0 0.00 0.01 0.00 87 1016.4
20260506031603 31 0 0.0 0.0 0.00 0.01 0.00 87 1016.4
20260506031403 31 0 0.0 0.0 0.00 0.01 0.00 87 1016.4
20260506031204 31 0 0.0 0.0 0.00 0.01 0.00 87 1016.5
20260506031006 31 0 0.0 0.0 0.00 0.01 0.00 87 1016.4
20260506030803 31 0 0.0 0.0 0.00 0.01 0.00 87 1016.5
20260506030604 31 0 0.0 0.0 0.00 0.01 0.00 87 1016.5
20260506030403 31 0 0.0 0.0 0.00 0.01 0.00 86 1016.5
20260506030004 31 0 0.0 0.0 0.00 0.01 0.00 86 1016.5
20260506025803 31 0 0.0 0.0 0.00 0.01 0.00 86 1016.5
20260506025604 31 0 0.0 0.0 0.00 0.01 0.00 86 1016.5
20260506025405 31 0 0.0 0.0 0.00 0.01 0.00 86 1016.4
20260506025203 31 0 0.0 0.0 0.00 0.01 0.00 86 1016.4
20260506025004 32 0 0.0 0.0 0.00 0.01 0.00 86 1016.3
20260506024804 32 0 0.0 0.0 0.00 0.01 0.00 86 1016.4
20260506024603 32 0 0.0 0.0 0.00 0.01 0.00 86 1016.3
20260506024403 32 0 0.0 0.0 0.00 0.01 0.00 86 1016.4
20260506024203 32 325 0.0 1.7 0.00 0.01 0.00 86 1016.4
20260506024004 32 325 0.0 1.7 0.00 0.01 0.00 86 1016.4
20260506023805 32 325 0.0 1.7 0.00 0.01 0.00 86 1016.5
20260506023604 32 325 0.0 1.7 0.00 0.01 0.00 86 1016.4
20260506023403 32 325 0.0 1.7 0.00 0.01 0.00 86 1016.4
20260506023203 32 325 0.0 0.9 0.00 0.01 0.00 86 1016.4
20260506023003 32 0 0.0 0.0 0.00 0.01 0.00 86 1016.4
20260506022805 32 0 0.0 0.0 0.00 0.01 0.00 86 1016.3
20260506022604 32 0 0.0 0.0 0.00 0.01 0.00 86 1016.3
20260506022403 32 0 0.0 0.0 0.00 0.01 0.00 85 1016.4
20260506022203 32 0 0.0 0.0 0.00 0.01 0.00 85 1016.4
20260506022003 32 0 0.0 0.0 0.00 0.01 0.00 85 1016.5
20260506021804 32 0 0.0 0.0 0.00 0.01 0.00 85 1016.4
20260506021603 33 325 0.0 0.9 0.00 0.01 0.00 86 1016.4
20260506021403 33 325 0.0 0.9 0.00 0.01 0.00 86 1016.4
20260506021203 33 325 0.0 0.9 0.00 0.01 0.00 86 1016.4
20260506021003 33 325 0.0 0.9 0.00 0.01 0.00 86 1016.4
20260506020803 33 325 0.0 0.9 0.00 0.01 0.00 86 1016.4
20260506020604 33 325 0.0 0.9 0.00 0.01 0.00 85 1016.4
20260506020404 33 0 0.0 0.0 0.00 0.01 0.00 85 1016.4
20260506020203 33 0 0.0 0.0 0.00 0.01 0.00 85 1016.4
20260506020003 33 0 0.0 0.0 0.00 0.01 0.00 86 1016.4
20260506015803 33 0 0.0 0.0 0.00 0.01 0.00 86 1016.4
20260506015603 34 0 0.0 0.0 0.00 0.01 0.00 86 1016.4
20260506015403 34 0 0.0 0.0 0.00 0.01 0.00 86 1016.4
20260506015203 34 325 0.0 0.9 0.00 0.01 0.00 86 1016.5
20260506015004 34 325 0.0 1.7 0.00 0.01 0.00 86 1016.6
20260506014803 34 325 0.9 1.7 0.00 0.01 0.00 86 1016.6
20260506014604 34 326 0.9 3.5 0.00 0.01 0.00 86 1016.6
20260506014403 34 326 0.9 3.5 0.00 0.01 0.00 86 1016.6
20260506014204 34 326 0.9 3.5 0.00 0.01 0.00 86 1016.6
20260506014003 34 326 0.9 3.5 0.00 0.01 0.00 86 1016.6
20260506013804 34 327 0.9 3.5 0.00 0.01 0.00 86 1016.6
20260506013604 34 327 0.9 1.7 0.00 0.01 0.00 86 1016.6
20260506013404 34 327 0.9 1.7 0.00 0.01 0.00 86 1016.6
20260506013204 34 327 0.9 1.7 0.00 0.01 0.00 86 1016.7
20260506013003 34 327 0.0 3.5 0.00 0.01 0.00 86 1016.6
20260506012803 34 327 0.0 3.5 0.00 0.01 0.00 86 1016.7
20260506012604 34 327 0.0 3.5 0.00 0.01 0.00 86 1016.7
20260506012405 34 327 0.0 3.5 0.00 0.01 0.00 86 1016.7
20260506012204 34 327 0.0 3.5 0.00 0.01 0.00 86 1016.7
20260506012003 34 327 0.0 0.9 0.00 0.01 0.00 86 1016.7
20260506011803 33 327 0.0 0.9 0.00 0.01 0.00 86 1016.7
20260506011604 33 0 0.0 0.0 0.00 0.01 0.00 86 1016.7
20260506011403 33 327 0.0 1.7 0.00 0.01 0.00 85 1016.7
20260506011203 33 327 0.0 1.7 0.00 0.01 0.00 85 1016.7
20260506011004 33 327 0.9 3.5 0.00 0.01 0.00 85 1016.7
20260506010804 33 327 0.9 3.5 0.00 0.01 0.00 85 1016.7
20260506010604 33 327 0.9 3.5 0.00 0.01 0.00 85 1016.7
20260506010404 33 327 0.9 3.5 0.00 0.01 0.00 85 1016.7
20260506010204 33 327 0.9 3.5 0.00 0.01 0.00 84 1016.7
20260506010003 33 327 1.7 3.5 0.00 0.01 0.00 84 1016.7
20260506005803 34 328 1.7 3.5 0.00 0.01 0.00 84 1016.7
20260506005603 34 328 1.7 3.5 0.00 0.01 0.00 84 1016.7
20260506005403 34 328 2.6 5.2 0.00 0.01 0.00 84 1016.9
20260506005203 34 328 1.7 5.2 0.00 0.01 0.00 84 1016.9
20260506005003 34 327 1.7 5.2 0.00 0.01 0.00 84 1016.8
20260506004803 34 327 0.9 5.2 0.00 0.01 0.00 84 1016.7
20260506004604 34 327 0.9 5.2 0.00 0.01 0.00 84 1016.8
20260506004404 34 325 0.0 1.7 0.00 0.01 0.00 84 1016.7
20260506004204 34 0 0.0 0.0 0.00 0.01 0.00 84 1016.7
20260506004003 34 0 0.0 0.0 0.00 0.01 0.00 84 1016.7
20260506003804 34 0 0.0 0.0 0.00 0.01 0.00 83 1016.7
20260506003603 34 325 0.0 0.9 0.00 0.01 0.00 83 1016.8
20260506003403 34 325 0.0 1.7 0.00 0.01 0.00 83 1016.7
20260506003204 34 325 0.0 1.7 0.00 0.01 0.00 83 1016.8
20260506003003 34 325 0.9 1.7 0.00 0.01 0.00 83 1016.8
20260506002803 34 325 0.9 3.5 0.00 0.01 0.00 83 1016.8
20260506002603 34 325 0.9 3.5 0.00 0.01 0.00 83 1016.7
20260506002404 34 326 1.7 4.3 0.00 0.01 0.00 83 1016.7
20260506002204 34 327 1.7 4.3 0.00 0.01 0.00 83 1016.7
20260506002003 35 328 1.7 4.3 0.00 0.01 0.00 83 1016.7
20260506001803 35 329 1.7 4.3 0.00 0.01 0.00 83 1016.7
20260506001604 35 330 1.7 4.3 0.00 0.01 0.00 82 1016.7
20260506001403 35 331 0.9 3.5 0.00 0.01 0.00 82 1016.7
20260506001204 35 330 0.9 3.5 0.00 0.01 0.00 82 1016.7
20260506001003 35 330 0.9 3.5 0.00 0.01 0.00 82 1016.7
20260506000803 35 330 0.0 1.7 0.00 0.01 0.00 82 1016.6
20260506000604 35 330 0.0 1.7 0.00 0.01 0.00 82 1016.6
20260506000403 35 0 0.0 0.0 0.00 0.01 0.00 82 1016.7
20260506000204 36 0 0.0 0.0 0.00 0.01 0.00 82 1016.7
20260506000003 36 0 0.0 0.0 0.00 0.01 0.00 81 1016.6
20260505235804 36 0 0.0 0.0 0.00 0.01 0.00 81 1016.6
20260505235603 36 330 0.0 0.9 0.00 0.01 0.00 81 1016.7
20260505235403 36 330 0.0 0.9 0.00 0.01 0.00 81 1016.7
20260505235204 36 330 0.0 0.9 0.00 0.01 0.00 82 1016.6
20260505235004 36 330 0.0 0.9 0.00 0.01 0.00 82 1016.7
20260505234803 36 330 0.0 0.9 0.00 0.01 0.00 82 1016.6
20260505234604 36 330 0.0 1.7 0.00 0.01 0.00 82 1016.7
20260505234404 36 330 0.0 1.7 0.00 0.01 0.00 82 1016.6
20260505234204 36 330 0.9 1.7 0.00 0.01 0.00 82 1016.6
20260505234004 36 330 0.9 1.7 0.00 0.01 0.00 82 1016.7
20260505233804 36 330 0.9 1.7 0.00 0.01 0.00 82 1016.6
20260505233603 36 330 0.9 3.5 0.00 0.01 0.00 82 1016.6
20260505233404 36 332 1.7 3.5 0.00 0.01 0.00 82 1016.7
20260505233203 36 333 1.7 3.5 0.00 0.01 0.00 82 1016.7
20260505233003 36 334 1.7 3.5 0.00 0.01 0.00 82 1016.7
20260505232804 36 336 1.7 3.5 0.00 0.01 0.00 82 1016.7
20260505232603 36 338 1.7 3.5 0.00 0.01 0.00 82 1016.7
20260505232404 36 339 1.7 3.5 0.00 0.01 0.00 82 1016.7
20260505232203 36 340 1.7 3.5 0.00 0.01 0.00 82 1016.7
20260505232003 36 341 0.9 3.5 0.00 0.01 0.00 82 1016.9
20260505231804 36 341 0.9 3.5 0.00 0.01 0.00 82 1016.8
20260505231604 36 341 0.9 3.5 0.00 0.01 0.00 82 1016.8
20260505231404 36 341 0.9 3.5 0.00 0.01 0.00 82 1016.7
20260505231204 36 341 0.9 1.7 0.00 0.01 0.00 82 1016.8
20260505231003 36 341 0.9 1.7 0.00 0.01 0.00 82 1016.7
20260505230804 36 341 0.9 1.7 0.00 0.01 0.00 82 1016.8
20260505230603 36 341 0.9 1.7 0.00 0.01 0.00 82 1016.7
20260505230403 36 341 0.9 1.7 0.00 0.01 0.00 82 1016.8
20260505230204 36 341 0.9 1.7 0.00 0.01 0.00 82 1016.8
20260505230004 36 341 0.9 1.7 0.00 0.01 0.00 82 1016.8
20260505225804 36 341 0.9 1.7 0.00 0.01 0.01 82 1016.8
20260505225603 36 341 0.9 1.7 0.00 0.01 0.01 82 1016.7
20260505225403 36 341 0.9 1.7 0.00 0.01 0.01 82 1016.7
20260505225203 36 341 0.9 1.7 0.00 0.01 0.01 81 1016.7
20260505225004 36 341 0.0 1.7 0.00 0.01 0.01 81 1016.8
20260505224803 36 341 0.0 0.9 0.00 0.01 0.01 81 1016.8
20260505224604 36 341 0.0 0.9 0.00 0.01 0.01 81 1016.8
20260505224403 36 341 0.0 1.7 0.00 0.01 0.01 81 1016.8
20260505224203 37 341 0.0 1.7 0.00 0.01 0.01 81 1016.9
20260505224003 37 341 0.9 1.7 0.00 0.01 0.01 81 1016.8
20260505223804 37 341 0.9 1.7 0.00 0.01 0.01 81 1016.9
20260505223604 37 341 0.9 1.7 0.00 0.01 0.01 81 1016.9
20260505223404 37 341 1.7 1.7 0.00 0.01 0.01 81 1016.9
20260505223203 37 341 0.9 1.7 0.00 0.01 0.01 81 1016.9
20260505223003 37 341 0.9 1.7 0.00 0.01 0.01 81 1017.0
20260505222803 37 341 0.9 1.7 0.00 0.01 0.01 81 1016.9
20260505222605 37 341 0.9 1.7 0.00 0.01 0.01 81 1017.0
20260505222405 37 341 0.0 1.7 0.00 0.01 0.01 81 1017.0
20260505222203 37 341 0.0 0.9 0.00 0.01 0.01 81 1017.0
20260505222004 37 341 0.0 0.9 0.00 0.01 0.01 81 1017.0
20260505221803 37 341 0.0 1.7 0.00 0.01 0.01 81 1017.0
20260505221604 38 341 0.0 1.7 0.00 0.01 0.01 81 1017.0
20260505221404 38 341 0.0 1.7 0.00 0.01 0.01 81 1017.1
20260505221203 38 341 0.0 1.7 0.00 0.01 0.01 80 1017.1
20260505221004 38 341 0.0 1.7 0.00 0.01 0.01 80 1017.1
20260505220803 38 341 0.0 1.7 0.00 0.01 0.01 81 1017.1
20260505220604 38 341 0.9 1.7 0.00 0.01 0.01 81 1017.1
20260505220403 38 341 0.9 1.7 0.00 0.01 0.01 80 1017.1
20260505220203 38 341 0.9 1.7 0.00 0.01 0.01 80 1017.2
20260505220003 38 341 0.9 1.7 0.00 0.01 0.01 80 1017.1
20260505215804 38 341 0.9 1.7 0.00 0.01 0.01 80 1017.1
20260505215603 38 341 0.9 1.7 0.00 0.01 0.01 80 1017.2
20260505215404 38 341 0.9 1.7 0.00 0.01 0.01 80 1017.1
20260505215205 38 341 0.9 1.7 0.00 0.01 0.01 80 1017.1
20260505215003 38 341 0.0 1.7 0.00 0.01 0.01 80 1017.2
20260505214803 38 341 0.0 1.7 0.00 0.01 0.01 80 1017.2
20260505214604 38 341 0.0 1.7 0.00 0.01 0.01 80 1017.2
20260505214403 38 341 0.9 1.7 0.00 0.01 0.01 79 1017.2
20260505214204 38 341 0.9 1.7 0.00 0.01 0.01 79 1017.2
20260505214004 39 341 0.9 1.7 0.00 0.01 0.01 79 1017.1
20260505213803 39 341 0.9 1.7 0.00 0.01 0.01 79 1017.2
20260505213604 39 341 0.9 1.7 0.00 0.01 0.01 79 1017.2
20260505213403 39 341 0.9 1.7 0.00 0.01 0.01 79 1017.2
20260505213203 39 341 0.0 1.7 0.00 0.01 0.01 79 1017.2
20260505213004 39 341 0.0 1.7 0.00 0.01 0.01 79 1017.2
20260505212804 39 341 0.9 1.7 0.00 0.01 0.01 79 1017.2
20260505212604 39 341 0.9 1.7 0.00 0.01 0.01 79 1017.2
20260505212403 39 341 0.9 1.7 0.00 0.01 0.01 78 1017.1
20260505212203 39 341 0.9 1.7 0.00 0.01 0.01 78 1017.1
20260505212004 39 341 0.9 1.7 0.00 0.01 0.01 78 1017.1
20260505211803 39 341 0.9 3.5 0.00 0.01 0.01 78 1017.0
20260505211603 39 341 0.9 3.5 0.00 0.01 0.01 78 1017.1
20260505211404 39 341 0.9 3.5 0.00 0.01 0.01 78 1017.0
20260505211205 39 341 0.9 3.5 0.00 0.01 0.01 78 1017.0
20260505211003 39 341 0.9 3.5 0.00 0.01 0.01 78 1017.0
20260505210805 39 341 0.9 1.7 0.00 0.01 0.01 78 1017.1
20260505210603 40 341 0.0 1.7 0.00 0.01 0.01 78 1017.0
20260505210403 40 341 0.0 1.7 0.00 0.01 0.01 78 1017.1
20260505210204 40 341 0.9 1.7 0.00 0.01 0.01 78 1017.1
20260505210003 40 341 0.9 1.7 0.00 0.01 0.01 78 1017.1
20260505205803 40 341 0.9 1.7 0.00 0.01 0.01 78 1017.2
20260505205603 40 341 0.9 1.7 0.00 0.01 0.01 78 1017.1
20260505205404 40 341 0.9 3.5 0.00 0.01 0.01 78 1017.1
20260505205203 40 341 0.9 3.5 0.00 0.01 0.01 78 1017.1
20260505205003 40 341 0.9 3.5 0.00 0.01 0.01 78 1017.1
20260505204803 40 341 0.9 3.5 0.00 0.01 0.01 78 1017.1
20260505204603 40 341 0.9 3.5 0.00 0.01 0.01 77 1017.1
20260505204403 40 341 0.0 1.7 0.00 0.01 0.01 77 1017.1
20260505204203 40 341 0.0 1.7 0.00 0.01 0.01 77 1017.1
20260505204004 40 341 0.0 1.7 0.00 0.01 0.01 76 1017.1
20260505203804 40 341 0.0 1.7 0.00 0.01 0.01 76 1017.2
20260505203603 40 341 0.0 1.7 0.00 0.01 0.01 76 1017.1
20260505203404 40 341 0.0 1.7 0.00 0.01 0.01 76 1017.1
20260505203204 40 341 0.0 1.7 0.00 0.01 0.01 76 1017.1
20260505203003 40 341 0.0 1.7 0.00 0.01 0.01 76 1017.2
20260505202804 40 341 0.0 1.7 0.00 0.01 0.01 76 1017.1
20260505202605 40 341 0.0 1.7 0.00 0.01 0.01 76 1017.2
20260505202403 40 341 0.0 1.7 0.00 0.01 0.01 76 1017.1
20260505202204 41 341 0.0 0.9 0.00 0.01 0.01 76 1017.1
20260505202004 41 341 0.0 0.9 0.00 0.01 0.01 75 1017.1
20260505201804 41 341 0.0 0.9 0.00 0.01 0.01 75 1017.1
20260505201604 41 341 0.0 1.7 0.00 0.01 0.01 75 1017.1
20260505201404 41 340 0.0 1.7 0.00 0.01 0.01 75 1017.1
20260505201203 41 340 0.9 1.7 0.00 0.01 0.01 75 1017.2
20260505201003 41 340 0.9 3.5 0.00 0.01 0.01 75 1017.2
20260505200803 41 340 0.9 3.5 0.00 0.01 0.01 75 1017.1
20260505200603 41 340 0.9 3.5 0.00 0.01 0.01 75 1017.1
20260505200403 41 340 0.9 3.5 0.00 0.01 0.01 75 1017.1
20260505200203 41 340 0.9 3.5 0.00 0.01 0.01 74 1017.1
20260505200003 41 340 0.9 3.5 0.00 0.01 0.01 74 1017.1
20260505195803 41 340 0.9 1.7 0.00 0.01 0.01 74 1017.1
20260505195604 41 340 0.9 1.7 0.00 0.01 0.01 74 1017.0
20260505195404 41 340 0.9 3.5 0.00 0.01 0.01 74 1017.1
20260505195203 41 340 1.7 3.5 0.00 0.01 0.01 74 1017.0
20260505195003 42 340 1.7 3.5 0.00 0.01 0.01 74 1017.1
20260505194804 42 340 1.7 4.3 0.00 0.01 0.01 73 1017.0
20260505194604 42 340 1.7 4.3 0.00 0.01 0.01 73 1017.0
20260505194404 42 340 1.7 4.3 0.00 0.01 0.01 73 1017.0
20260505194203 42 340 1.7 4.3 0.00 0.01 0.01 73 1017.0
20260505194004 42 340 1.7 4.3 0.00 0.01 0.01 73 1017.1
20260505193805 42 340 1.7 4.3 0.00 0.01 0.01 72 1017.0
20260505193603 42 340 1.7 4.3 0.00 0.01 0.01 72 1017.1
20260505193404 42 340 1.7 4.3 0.00 0.01 0.01 72 1017.0
20260505193204 42 340 2.6 4.3 0.00 0.01 0.01 71 1017.0
20260505193003 42 341 2.6 4.3 0.00 0.01 0.01 71 1017.0
20260505192803 43 340 2.6 5.2 0.00 0.01 0.01 71 1016.9
20260505192604 43 341 3.5 5.2 0.00 0.01 0.01 70 1016.9
20260505192404 43 341 3.5 5.2 0.00 0.01 0.01 70 1017.0
20260505192204 43 340 3.5 5.2 0.00 0.01 0.01 69 1017.0
20260505192003 43 338 3.5 6.1 0.00 0.01 0.01 69 1016.9
20260505191804 43 338 3.5 6.1 0.00 0.01 0.01 69 1016.9
20260505191603 43 337 3.5 6.1 0.00 0.01 0.01 69 1016.9
20260505191404 43 336 3.5 6.1 0.00 0.01 0.01 68 1016.9
20260505191203 43 335 3.5 6.1 0.00 0.01 0.01 68 1016.8
20260505191003 43 337 3.5 6.1 0.00 0.01 0.01 68 1016.9
20260505190804 44 336 3.5 6.1 0.00 0.01 0.01 67 1016.8
20260505190603 44 336 3.5 6.1 0.00 0.01 0.01 67 1016.8
20260505190403 44 337 3.5 6.1 0.00 0.01 0.01 67 1016.8
20260505190203 44 339 3.5 6.1 0.00 0.01 0.01 67 1016.8
20260505190003 44 339 3.5 5.2 0.00 0.01 0.01 67 1016.8
20260505185804 44 340 3.5 5.2 0.00 0.01 0.01 67 1016.8
20260505185604 44 340 3.5 6.1 0.00 0.01 0.01 67 1016.8
20260505185404 44 341 3.5 9.6 0.00 0.01 0.01 66 1016.8
20260505185204 44 339 4.3 10.4 0.00 0.01 0.01 66 1016.8
20260505185003 45 338 4.3 10.4 0.00 0.01 0.01 66 1016.9
20260505184803 45 337 4.3 10.4 0.00 0.01 0.01 65 1016.8
20260505184604 45 336 4.3 10.4 0.00 0.01 0.01 64 1016.8
20260505184403 45 335 5.2 10.4 0.00 0.01 0.01 64 1016.8
20260505184204 45 334 5.2 11.3 0.00 0.01 0.01 64 1016.9
20260505184003 45 334 5.2 11.3 0.00 0.01 0.01 64 1016.9
20260505183803 45 336 5.2 11.3 0.00 0.01 0.01 64 1016.9
20260505183604 45 335 6.1 12.2 0.00 0.01 0.01 63 1016.8
20260505183404 45 334 7.0 12.2 0.00 0.01 0.01 63 1016.9
20260505183203 45 335 7.0 12.2 0.00 0.01 0.01 62 1016.9
20260505183004 46 336 6.1 12.2 0.00 0.01 0.01 61 1016.9
20260505182803 46 336 5.2 12.2 0.00 0.01 0.01 61 1016.9
20260505182603 46 338 5.2 12.2 0.00 0.01 0.01 60 1016.9
20260505182405 46 339 4.3 11.3 0.00 0.01 0.01 58 1016.9
20260505182203 46 339 4.3 11.3 0.00 0.01 0.01 57 1016.9
20260505182003 46 337 5.2 11.3 0.00 0.01 0.01 57 1016.9
20260505181803 46 336 5.2 11.3 0.00 0.01 0.01 57 1016.9
20260505181603 47 334 5.2 11.3 0.00 0.01 0.01 56 1016.9
20260505181403 47 333 4.3 9.6 0.00 0.01 0.01 56 1016.9
20260505181203 47 331 4.3 9.6 0.00 0.02 0.01 55 1016.9
20260505181003 48 332 4.3 9.6 0.00 0.02 0.01 55 1016.9
20260505180803 48 332 4.3 9.6 0.00 0.02 0.01 56 1016.9
20260505180603 48 333 4.3 9.6 0.00 0.02 0.01 56 1016.9
20260505180405 48 335 4.3 8.7 0.00 0.02 0.01 56 1016.8
20260505180205 48 337 4.3 8.7 0.00 0.02 0.01 56 1016.9
20260505180003 48 337 4.3 8.7 0.00 0.02 0.01 57 1016.9
20260505175804 47 339 4.3 7.0 0.00 0.02 0.01 57 1016.8
20260505175603 47 339 4.3 7.0 0.00 0.02 0.01 56 1016.9
20260505175404 47 339 3.5 8.7 0.00 0.02 0.01 56 1016.9
20260505175203 47 340 3.5 8.7 0.00 0.02 0.01 56 1016.9
20260505175004 47 340 3.5 8.7 0.00 0.02 0.01 56 1016.9
20260505174803 47 340 3.5 8.7 0.00 0.02 0.01 56 1016.8
20260505174604 47 341 2.6 8.7 0.00 0.02 0.01 56 1016.8
20260505174403 47 344 3.5 8.7 0.00 0.02 0.01 56 1016.8
20260505174204 47 343 3.5 8.7 0.00 0.02 0.01 56 1016.9
20260505174003 47 343 3.5 8.7 0.00 0.02 0.01 56 1016.9
20260505173804 47 343 3.5 8.7 0.00 0.02 0.01 56 1016.9
20260505173603 47 341 4.3 8.7 0.00 0.02 0.01 56 1016.9
20260505173403 47 339 4.3 9.6 0.00 0.02 0.01 56 1016.9
20260505173205 47 338 4.3 12.2 0.00 0.02 0.01 56 1016.8
20260505173003 47 338 4.3 12.2 0.00 0.02 0.01 54 1016.9
20260505172803 47 338 5.2 12.2 0.00 0.02 0.01 55 1017.0
20260505172603 47 339 5.2 12.2 0.00 0.02 0.01 55 1016.8
20260505172403 47 339 5.2 12.2 0.00 0.02 0.01 55 1016.9
20260505172204 47 338 4.3 10.4 0.00 0.02 0.01 55 1016.9
20260505172003 47 340 5.2 10.4 0.00 0.02 0.01 56 1016.9
20260505171804 47 339 5.2 11.3 0.00 0.02 0.01 56 1016.9
20260505171605 47 340 5.2 11.3 0.00 0.02 0.01 56 1016.9
20260505171403 47 341 6.1 11.3 0.00 0.02 0.01 55 1016.8
20260505171203 48 343 6.1 12.2 0.00 0.02 0.01 54 1016.9
20260505171004 48 342 6.1 12.2 0.00 0.02 0.01 54 1016.8
20260505170804 48 345 6.1 12.2 0.00 0.02 0.01 53 1016.8
20260505170603 48 348 5.2 12.2 0.00 0.02 0.01 52 1016.8
20260505170403 49 354 4.3 12.2 0.00 0.02 0.01 52 1016.7
20260505170203 49 352 3.5 10.4 0.00 0.02 0.01 51 1016.8
20260505170004 49 350 3.5 9.6 0.00 0.02 0.01 51 1016.8
20260505165804 50 345 3.5 10.4 0.00 0.02 0.01 51 1016.7
20260505165603 50 337 4.3 11.3 0.00 0.02 0.01 51 1016.8
20260505165405 50 334 4.3 11.3 0.00 0.02 0.01 52 1016.7
20260505165203 50 333 4.3 11.3 0.00 0.02 0.01 52 1016.7
20260505165003 50 335 4.3 11.3 0.00 0.02 0.01 53 1016.7
20260505164803 50 339 4.3 11.3 0.00 0.02 0.01 51 1016.7
20260505164604 50 341 4.3 10.4 0.00 0.02 0.01 51 1016.6
20260505164404 50 342 4.3 10.4 0.00 0.02 0.01 49 1016.7
20260505164204 50 342 4.3 10.4 0.00 0.02 0.01 49 1016.7
20260505164004 50 340 5.2 14.8 0.00 0.02 0.01 49 1016.7
20260505163804 50 336 6.1 14.8 0.00 0.02 0.01 50 1016.8